Terug naar catalogus

QIANFAN-125

ActiefCommunicatiePO
NORAD 68652·PAYLOAD·🇨🇳 China

Gelanceerd Apr 7, 2026 vanaf Wenchang Space Launch Site

Loading…

Volgende Passages (komende 24 uur)

TLE

VersSource: Space-Track

Epoch: Sep 14, 2026, 14:15 UTC

1 68652U 26075S   26257.59391198  .00000073  00000-0  94632-4 0  9992
2 68652  88.9873 311.8689 0002280  99.3068 260.8341 13.51023572 21887

Volg QIANFAN-125 in realtime met AllMySat

Download on the App Store